Regional Weather Roundup
Issued by NWS Charleston, WV

Home | Current Version | Previous Version | Graphics & Text | Print | Product List | Glossary On
Versions: 1 2 3 4 5 6 7 8 9 10 11 12 13 14 15 16 17 18 19 20 21 22 23 24 25 26 27
000
ASUS41 KRLX 230710
RWRRLX
West Virginia Regional Weather Roundup
National Weather Service Charleston WV
300 AM EDT THU OCT 23 2014

Note: "fair" indicates few or no clouds below 12,000 feet with no
significant weather and/or obstructions to visibility.

WVZ003-230800-
Northern Panhandle of West Virginia

CITY           SKY/WX    TMP DP  RH WIND       PRES   REMARKS
WHEELING       CLOUDY    44  40  85 NW6       30.15S
$$

WVZ009-230800-
Northwest West Virginia

CITY           SKY/WX    TMP DP  RH WIND       PRES   REMARKS
PARKERSBURG    CLOUDY    47  41  80 CALM      30.22S
$$

WVZ006-230800-
Western West Virginia

CITY           SKY/WX    TMP DP  RH WIND       PRES   REMARKS
HUNTINGTON     CLOUDY    47  41  80 CALM      30.21S
$$

WVZ015-230800-
West Central West Virginia

CITY           SKY/WX    TMP DP  RH WIND       PRES   REMARKS
CHARLESTON     CLOUDY    48  41  76 NW5       30.18F
$$

WVZ022-031-230800-
North Central West Virginia

CITY           SKY/WX    TMP DP  RH WIND       PRES   REMARKS
CLARKSBURG     CLOUDY    47  41  80 NW6       30.14S
MORGANTOWN     CLOUDY    48  40  73 CALM      30.14S
$$

WVZ025-035-042-045-230800-
Southern West Virginia

CITY           SKY/WX    TMP DP  RH WIND       PRES   REMARKS
BECKLEY        CLOUDY    42  39  89 N9        30.14S
LOGAN          CLOUDY    45  43  93 VRB5      30.18S
BLUEFIELD      CLOUDY    42  38  85 VRB3      30.14S
LEWISBURG      CLOUDY    45  39  78 N5        30.11S
$$

WVZ047-230800-
Northern Mountains of West Virginia

CITY           SKY/WX    TMP DP  RH WIND       PRES   REMARKS
ELKINS         CLOUDY    44  41  89 NW5       30.12F
$$

WVZ052-230800-
Eastern Panhandle of West Virginia

CITY           SKY/WX    TMP DP  RH WIND       PRES   REMARKS
MARTINSBURG    PTCLDY    51  39  63 NW15G26   29.97F
PETERSBURG     CLOUDY    50  38  64 NW12      30.07F
$$



USA.gov is the U.S. government's official web portal to all federal, state and local government web resources and services.